NADEZHDA 6

Satellite information

Favourite Embed

Satellite Type and Status

PAYLOADIN ORBIT

Key statistics

Satellite NADEZHDA 6 at a glance.

Uptime

9244

Days in orbit

Revolutions

≈ 14.7

Per day

Orbit

SSO

Sun Synchronous Orbit

Inclination

97.8

Latest

Satellite identification and parameters

Extended collection of information and parameters for NADEZHDA 6.

Object identification

Identified? True

Debris? False

Object name: NADEZHDA 6

International designator: 2000-033A

Object number (NORAD): 26384

Object ID (CCSDS): 26384

Country: COMMONWEALTH OF INDEPENDENT STATES (CIS)

Current information (Y/N): Y

RCS size: LARGE

Orbital parameters

Period: 97.907 minutes

Inclination: 97.8145 deg

SMA: 7036.685 km

Apoapsis: 668.737 km

Periapsis: 648.364 km

RAAN: 271.4733 deg

Eccentricy: 0.00144763

Argument of periapsis: 50.4738 deg

Mean anomaly: 309.7746 deg

Mean motion: 14.70789606 rev/day

Mean motion (dot): 0.00001735 rev/day2

B* drag term: 0.00029149175 1/REarth

Two-line elements (TLE)

Creation date: Oct. 19, 2025, 2:20 a.m.

Reference frame: TEME

Reference center: EARTH

Epoch: Oct. 18, 2025, 9:38 p.m. UTC

TLE line 0: 0 NADEZHDA 6

TLE line 1: 1 26384U 00033A 25291.90205118 .00001735 00000-0 29149-3 0 9998

TLE line 2: 2 26384 97.8145 271.4733 0014476 50.4738 309.7746 14.70789606352717

Live tracking on map

Real-time ground track for satellite NADEZHDA 6.

In-orbit conjunctions

There are no conjunctions computed for NADEZHDA 6, at the moment. Check back to stay up to date, as we update our databases every day.

Go to all conjunctions

Associated space launch

Civilian navigation satellite equivalent to the purely military Parus

NADEZHDA 6 was lifted into orbit during the mission ‘Kosmos-3M | Nadezhda 9’, on board a Kosmos-3M space rocket.

The launch took place on June 28, 2000, 10:37 a.m. from 132/1 (132L).

For more information about the launch, click the button.

Launch to space Kosmos-3M | Nadezhda 9
Kosmos-3M | Nadezhda 9

Agency: N/A

Status: Launch Successful

Launch date: June 28, 2000, 10:37 a.m. UTC

Rocket: Kosmos-3M

Launch pad: 132/1 (132L)

Location: Plesetsk Cosmodrome, Russian Federation

...

Latest news about this satellite

There are no fresh news available about this satellite. Check back as we update our databases every day.


Newsletter sign-up

Weekly statistics, charts and insights to help you stay on top of the space industry.